GFSSW_prec_cloud_198.txt.gz
Cloud_Cover
100 95 13 4 0 0 0 1 0 0 0 0 0 0 0 0 3 0 0 0 0 0 0 0 0 0 0 0 0 0 0 0 0 0 0 0 0 0 0 0 0 0 1 0 0
100 81 14 0 0 0 0 0 0 0 0 0 0 0 0 2 0 0 0 0 0 0 0 0 0 0 0 0 0 0 0 0 0 0 0 0 0 0 0 0 0 0 0 0 0
61 9 0 0 3 0 0 0 0 0 0 0 0 0 0 12 0 0 0 0 0 0 0 0 0 0 0 0 0 0 0 0 0 0 0 0 0 0 0 0 0 0 0 0 0
89 36 1 0 0 0 0 0 0 0 0 0 0 0 3 0 0 0 0 0 0 0 0 0 0 0 0 0 0 0 0 0 0 0 0 0 0 0 0 0 0 0 0 0 0
100 91 19 0 0 0 0 0 0 0 0 0 0 0 0 0 0 0 0 0 0 0 0 0 0 0 0 0 0 0 0 0 0 0 0 0 0 0 0 0 0 0 0 0 0
91 100 48 4 0 0 0 0 0 0 0 0 0 27 0 0 0 0 0 0 0 0 0 0 0 0 0 0 0 0 0 0 0 0 0 0 0 0 0 0 0 0 0 0 0
23 100 71 24 0 0 0 0 0 0 0 0 0 0 0 0 0 0 0 0 0 0 0 0 0 0 0 0 0 0 0 0 0 0 0 0 0 0 0 0 0 0 0 0 0
0 8 28 27 0 0 0 0 0 0 0 0 0 0 0 0 0 0 0 0 0 0 0 0 0 0 0 0 0 0 0 0 1 1 0 1 0 0 0 0 0 0 0 0 0
0 0 0 22 2 0 0 0 0 0 0 0 0 0 0 0 0 0 0 0 0 0 0 0 0 0 0 0 0 0 4 4 2 56 4 9 0 0 2 0 0 0 0 0 0
0 0 0 0 1 0 2 0 0 0 5 5 0 0 0 0 0 0 0 0 0 0 0 0 0 0 0 5 1 0 0 0 0 0 0 4 5 4 5 2 0 0 0 0 0
0 0 0 1 2 5 8 4 0 0 0 4 3 0 0 0 0 0 0 0 0 0 0 0 0 0 0 0 0 0 0 0 0 1 4 28 5 2 1 0 0 0 0 0 0
0 0 0 0 0 3 13 5 5 5 5 4 0 0 0 0 0 0 0 0 0 0 0 0 0 0 0 0 0 0 0 4 2 2 2 2 0 0 0 0 0 0 0 0 0
0 0 0 5 11 12 5 5 5 3 3 5 0 0 0 0 0 0 0 0 0 0 0 0 0 0 0 0 0 0 5 0 4 0 0 0 0 38 70 2 0 0 0 0 0
1 0 0 28 8 5 5 5 5 5 5 2 0 0 0 0 0 0 0 0 0 0 0 0 0 0 0 0 1 0 0 0 2 2 5 5 1 0 0 95 51 0 0 0 0
3 5 5 55 5 5 5 5 5 5 59 5 1 0 0 0 0 0 0 0 0 0 0 0 0 0 0 0 0 0 0 0 0 2 79 28 86 0 100 100 100 0 0 0 0
0 0 0 1 3 5 5 5 5 11 43 5 0 0 0 0 0 0 0 0 0 0 0 0 0 0 0 0 0 0 2 0 0 2 4 22 95 28 85 69 38 0 0 0 0
1 0 0 0 0 3 5 5 4 22 5 5 0 0 0 0 0 0 0 0 0 2 0 0 0 0 0 0 0 1 0 0 1 3 4 100 52 35 48 86 90 1 0 0 0
5 5 0 3 0 0 0 5 5 5 5 0 0 0 0 0 0 0 0 0 5 14 4 1 0 1 4 0 0 0 20 26 54 5 1 2 4 90 99 54 100 94 6 0 0
5 5 5 19 5 3 4 3 0 4 0 0 0 0 0 2 0 0 0 0 3 5 1 4 2 4 0 4 0 2 3 18 20 8 38 3 46 94 32 24 100 100 6 1 22
5 5 29 6 8 7 5 5 2 1 2 0 0 0 0 0 0 0 2 0 5 4 2 0 2 1 0 5 2 42 8 18 58 48 12 4 5 5 92 100 96 5 1 2 4
14 5 71 10 5 5 4 3 45 0 0 5 0 0 0 0 0 0 0 0 5 27 18 5 4 0 0 1 36 39 90 85 96 96 69 21 2 42 24 74 56 18 5 5 30
7 44 11 11 5 5 5 5 5 5 0 0 5 0 1 3 5 0 0 3 29 5 5 4 3 2 1 0 1 12 5 10 89 11 98 29 1 0 39 21 1 0 4 3 96
100 69 48 93 22 4 69 7 5 0 2 0 0 4 5 5 4 5 5 5 5 5 5 27 9 6 0 0 15 58 100 100 80 58 4 96 1 0 0 30 81 36 48 10 30
7 33 19 4 61 12 5 5 5 4 4 5 3 1 5 5 6 49 5 21 37 83 100 50 39 56 5 3 2 38 52 33 84 97 49 13 19 5 44 100 96 45 5 4 7
5 7 6 92 28 11 94 83 78 18 5 85 7 5 34 42 5 5 5 6 54 62 72 95 81 64 5 4 59 8 5 53 98 8 87 2 6 5 100 74 45 5 5 5 21
5 65 62 6 100 100 97 79 62 24 41 21 5 6 52 17 16 26 12 87 55 5 5 39 10 37 5 89 69 98 46 42 4 5 100 100 81 100 100 29 39 21 100 62 5
25 33 74 100 100 100 100 100 92 30 55 72 53 41 98 95 76 10 16 80 5 5 5 6 5 69 74 50 94 68 66 5 5 67 100 22 5 6 32 64 80 100 99 4 5

GFSSW_prec_cloud_201.txt.gz
Cloud_Cover
20 0 0 0 0 0 0 0 0 0 0 0 0 0 0 0 0 0 0 0 0 0 0 0 0 0 0 0 0 0 0 0 0 0 0 0 0 0 0 0 0 0 0 0 0
43 19 0 0 0 0 0 0 0 0 0 0 0 0 0 0 0 0 0 0 0 0 0 0 0 0 0 0 0 0 0 0 0 0 0 0 0 0 0 0 0 0 0 0 0
100 51 4 0 0 0 0 0 0 0 0 0 0 0 0 0 0 0 0 0 0 0 0 0 0 0 0 0 0 0 0 0 0 0 0 0 0 0 0 0 0 0 0 0 0
100 98 37 21 0 0 0 0 0 0 0 0 0 0 0 0 0 0 0 0 0 0 0 0 0 0 0 0 0 0 0 0 0 0 0 0 0 0 0 0 0 0 0 0 0
94 100 92 18 8 0 0 0 0 0 0 0 0 0 0 0 0 0 0 0 0 0 0 0 0 0 0 0 0 0 0 0 0 0 0 0 0 0 0 0 0 0 0 0 0
0 8 19 20 11 0 0 0 0 0 0 0 0 0 0 0 0 0 0 0 0 0 0 0 0 0 0 0 0 0 0 0 0 0 0 0 0 0 0 0 0 0 0 0 0
0 0 1 4 2 0 0 0 0 0 0 0 0 0 0 0 0 0 0 0 0 0 0 0 0 0 0 0 0 0 0 0 0 0 0 0 0 0 0 0 0 0 0 0 0
0 0 0 0 0 0 0 0 0 0 0 0 0 0 0 0 0 0 0 0 0 0 0 0 0 0 0 0 0 0 0 0 0 1 0 0 0 0 0 0 0 0 0 0 0
0 0 0 0 2 0 0 0 1 0 0 0 0 0 0 0 0 0 0 0 0 0 0 0 0 0 0 0 0 0 0 0 0 0 0 0 0 0 0 1 0 0 0 0 0
5 3 0 0 0 2 4 5 5 5 4 0 1 0 5 4 0 0 0 0 0 0 0 0 0 0 0 0 0 0 0 0 0 0 0 0 0 0 0 1 0 0 0 0 0
0 0 0 0 0 0 0 0 0 1 5 5 47 39 91 19 2 0 0 0 0 0 0 0 0 0 0 0 0 0 0 0 0 0 0 0 0 0 0 0 0 0 0 0 0
0 0 0 0 0 6 15 5 5 22 6 10 5 9 5 5 5 5 4 0 0 0 0 0 0 0 0 0 0 0 0 0 0 0 0 0 0 0 0 0 3 0 0 0 0
0 0 0 0 4 2 0 1 5 13 75 10 5 82 75 31 3 0 0 0 0 0 0 0 0 0 0 0 0 0 0 0 0 0 0 0 0 0 0 2 3 10 19 2 0
0 0 0 0 0 0 0 0 0 4 6 6 5 5 7 5 5 0 0 0 0 0 0 0 0 0 0 0 0 0 0 0 0 0 0 0 1 0 0 2 13 16 95 5 0
0 0 0 0 0 0 0 0 0 0 11 5 5 5 5 5 2 5 0 0 0 0 0 0 0 0 0 0 0 0 0 0 0 0 0 0 2 5 5 28 94 80 73 58 5
3 1 0 0 0 0 0 0 0 0 2 2 2 3 0 0 0 0 0 0 0 0 0 0 0 0 0 0 0 0 0 0 0 0 0 2 4 0 4 3 5 78 48 90 73
7 49 5 3 3 0 0 0 0 0 2 1 0 0 0 0 0 0 0 0 0 0 0 0 0 0 4 1 0 0 0 0 0 0 0 0 0 0 0 26 68 12 50 96 99
5 5 5 5 1 0 4 5 5 0 5 0 0 0 0 0 0 0 0 0 0 2 5 1 0 0 5 4 2 0 0 0 2 5 0 0 0 0 5 5 2 2 2 4 99
6 64 10 5 31 5 5 25 4 0 5 4 0 0 0 0 0 1 1 0 0 2 0 0 0 0 0 0 0 0 0 4 5 6 5 0 2 0 3 1 0 1 56 92 91
5 5 34 46 24 5 5 57 5 1 6 5 2 2 0 5 1 0 0 0 2 5 5 0 0 0 0 0 0 0 0 9 22 31 15 0 9 0 2 33 11 5 0 0 3
4 5 5 23 72 100 25 5 5 53 5 5 5 0 0 0 0 0 0 0 0 0 3 5 0 0 0 5 1 0 4 99 100 92 93 9 27 5 0 0 0 0 0 1 5
5 3 0 1 0 2 1 1 6 39 19 3 0 4 0 2 5 0 0 0 0 5 1 0 4 0 0 5 4 0 0 4 30 5 36 4 25 8 0 0 0 6 99 8 7
11 9 2 1 2 0 2 5 21 5 5 5 0 0 5 3 2 0 0 4 3 3 12 29 5 7 2 13 6 4 34 57 98 75 40 100 2 7 1 0 0 1 74 6 5
2 33 100 73 39 3 2 83 45 94 99 4 5 18 33 2 4 5 37 50 27 90 74 98 71 6 18 3 5 7 3 5 36 76 27 40 3 4 7 1 25 95 33 50 5
4 18 52 89 100 99 20 9 100 88 100 97 50 99 42 83 62 46 42 6 38 100 53 5 85 99 5 5 38 5 64 76 3 7 59 0 0 2 19 72 71 99 41 5 4
0 0 0 0 0 88 100 100 23 5 73 100 100 100 100 32 6 5 65 32 34 99 98 5 5 17 5 61 21 4 75 4 13 0 0 1 0 5 100 100 100 83 20 4 0
0 1 0 0 5 5 61 41 94 90 63 87 94 84 100 100 45 5 5 5 5 5 5 6 17 3 4 5 4 14 26 0 0 0 1 5 20 19 52 100 100 41 5 2 1

GFSSW_prec_cloud_207.txt.gz
Cloud_Cover
21 31 92 79 24 2 0 1 7 0 0 0 0 0 0 0 0 0 0 0 0 0 0 0 0 0 0 0 0 0 0 0 0 0 0 0 0 0 0 0 0 0 0 0 0
20 24 25 28 34 28 5 0 0 0 0 0 0 0 0 0 0 0 0 0 0 0 0 0 0 0 0 0 0 0 0 0 0 0 0 0 0 0 0 0 0 0 0 0 0
0 0 14 20 26 18 27 0 0 0 0 0 0 0 0 0 0 0 0 0 0 0 0 0 0 0 0 0 0 0 0 0 0 0 0 0 0 0 0 0 0 0 0 0 0
0 0 0 3 19 26 26 26 0 0 0 0 0 0 0 0 0 0 0 0 0 0 0 0 0 0 0 0 0 0 0 0 0 0 0 0 0 0 0 0 0 0 0 0 0
0 0 0 0 2 13 15 22 0 0 0 0 0 0 0 0 0 0 0 0 0 0 0 0 0 0 0 0 0 0 0 0 0 0 0 0 0 0 0 0 0 0 0 0 0
0 0 0 0 0 1 0 0 0 0 0 0 0 0 0 0 0 0 0 0 0 0 0 0 0 0 0 0 0 0 0 0 0 0 0 0 0 0 0 0 0 0 0 0 0
0 0 0 0 0 0 0 0 0 0 0 0 0 0 0 0 0 0 0 0 0 0 0 0 0 0 0 0 0 0 0 0 0 0 0 0 0 0 0 0 0 0 0 0 0
0 0 0 0 0 0 0 0 0 0 0 0 0 0 0 0 0 0 0 0 0 0 0 0 0 0 0 0 0 0 0 0 0 0 0 0 0 0 0 0 0 0 0 0 0
0 0 0 0 0 0 0 0 0 0 0 0 0 0 0 0 0 0 0 0 0 0 0 0 0 0 0 0 0 0 0 0 0 0 0 0 0 0 0 0 0 0 0 0 0
0 0 0 0 0 0 0 0 0 0 0 0 0 0 0 0 0 3 5 5 5 5 4 2 0 0 0 0 0 0 0 0 0 0 0 0 0 0 0 0 0 0 0 0 0
5 0 0 0 0 0 3 0 0 0 0 0 0 0 0 0 0 0 0 0 0 0 2 0 1 0 0 0 0 0 0 0 0 0 0 0 0 0 0 0 0 0 0 0 0
0 0 0 0 0 0 35 0 0 0 0 0 0 0 2 0 3 1 5 6 5 5 5 5 5 1 0 0 0 0 0 0 0 0 0 0 0 0 0 0 0 0 0 0 0
0 2 1 0 0 0 0 0 0 0 0 0 0 0 0 0 0 0 2 6 44 29 10 5 5 3 0 0 0 0 0 0 0 0 0 0 0 0 0 0 0 0 0 0 0
4 4 3 0 0 0 0 0 0 0 0 0 0 0 0 0 0 0 1 5 5 3 5 3 5 0 0 0 0 0 0 0 0 0 0 0 0 0 0 0 0 0 0 0 0
0 0 0 0 0 0 0 0 0 0 0 0 0 0 0 0 0 0 0 0 0 0 0 0 0 0 0 0 0 0 0 0 0 0 0 0 0 0 0 0 0 0 0 0 0
0 0 0 0 0 1 0 5 0 0 0 4 5 5 2 0 0 0 0 0 0 0 0 5 0 0 0 0 0 0 0 0 0 0 0 0 0 0 0 0 0 0 0 0 0
1 1 0 0 0 0 1 5 5 0 0 0 5 29 6 1 0 0 0 0 0 0 1 0 0 0 0 0 0 0 0 0 0 0 0 0 0 0 0 0 0 0 0 0 0
0 0 0 0 0 0 1 5 5 2 0 0 5 5 7 5 5 4 3 5 0 0 1 3 0 0 0 0 0 0 0 0 0 0 0 0 0 0 0 0 0 0 0 0 0
0 0 0 0 0 0 0 0 0 0 0 0 0 0 2 5 0 5 5 5 1 0 0 0 5 3 0 0 0 0 0 0 0 0 0 0 0 0 1 0 0 0 0 0 0
2 5 3 3 3 1 0 0 0 0 0 0 0 0 0 0 3 4 0 0 0 0 0 0 0 0 5 0 0 0 0 0 0 0 0 0 4 0 3 0 0 0 0 0 0
0 0 0 0 0 1 0 0 0 0 0 0 0 5 4 3 0 0 0 0 0 0 0 0 0 0 0 11 37 2 0 0 0 0 0 2 2 5 4 4 4 4 0 0 0
0 0 0 0 0 0 0 0 0 0 0 0 5 5 14 5 5 5 5 5 65 6 1 4 1 0 0 1 78 70 5 5 0 0 0 4 4 5 0 0 0 2 0 0 0
0 0 0 0 0 0 0 0 0 0 0 0 4 100 78 67 45 5 96 100 100 100 82 72 100 50 5 4 8 76 57 44 79 6 2 8 4 2 1 4 5 1 2 5 5
0 0 0 0 0 0 0 0 0 1 4 5 5 5 23 49 90 32 30 100 100 100 100 91 42 65 5 5 44 68 98 100 99 6 87 3 1 0 0 0 0 2 2 2 0
0 0 1 4 1 0 0 1 2 5 5 5 4 42 39 5 5 11 51 86 13 89 100 100 100 100 100 100 13 5 5 93 100 100 97 0 0 0 4 0 2 0 0 0 0
0 0 0 0 5 0 0 0 0 5 44 44 62 8 90 100 56 7 55 100 100 92 100 100 100 100 20 41 5 0 0 5 5 5 83 90 0 73 0 0 2 0 5 0 4
0 1 3 5 5 5 5 0 1 1 0 72 100 100 99 100 100 100 100 100 95 100 100 100 100 100 1 5 5 1 2 8 5 5 6 5 5 5 5 5 2 2 5 5 5

GFSSW_prec_cloud_210.txt.gz
Cloud_Cover
12 22 37 45 40 76 21 18 0 0 0 0 0 0 0 0 0 0 0 0 0 0 0 0 0 0 0 0 0 0 0 0 0 0 0 0 0 0 0 0 0 0 0 0 0
0 0 14 20 30 30 29 23 0 0 0 0 0 0 0 1 0 0 0 0 0 0 0 0 0 0 0 0 0 0 0 0 0 0 0 0 0 0 0 0 0 0 0 0 0
0 0 0 0 16 31 29 29 8 0 0 0 0 0 0 0 0 0 0 0 0 0 0 0 0 0 0 0 0 0 0 0 0 0 0 0 0 0 0 0 0 0 0 0 0
0 0 0 0 0 12 24 29 22 0 0 0 0 0 0 0 0 0 0 0 0 0 0 0 0 0 0 0 0 0 0 0 0 0 0 0 0 0 0 0 0 0 0 0 0
0 0 0 0 0 2 2 21 2 0 0 0 0 0 0 0 0 0 0 0 0 0 0 0 0 0 0 0 0 0 0 0 0 0 0 0 0 0 0 0 0 0 0 0 0
0 0 0 0 0 0 0 0 0 0 0 0 0 0 0 0 0 0 0 0 0 0 0 0 0 0 0 0 0 0 0 0 0 0 0 0 0 0 0 0 0 0 0 0 0
0 0 0 0 0 0 0 0 0 0 0 0 0 0 0 0 0 0 0 0 0 0 0 0 0 0 0 0 0 0 0 0 0 0 0 0 0 0 0 0 0 0 0 0 0
0 5 1 0 0 0 0 0 0 0 0 0 0 0 0 0 0 0 0 0 0 0 0 0 0 0 0 0 0 0 0 0 0 0 0 0 0 0 0 0 0 0 0 0 0
1 5 4 5 0 0 0 0 0 0 0 0 0 0 0 0 0 0 0 0 0 0 0 0 0 0 0 0 0 0 0 0 0 0 0 0 0 0 0 0 0 0 0 0 0
5 5 5 2 0 0 0 0 0 0 0 0 0 0 0 0 0 0 0 0 0 0 0 3 0 0 0 0 0 0 0 0 0 0 0 0 0 0 0 0 0 0 0 0 0
0 2 5 0 0 0 1 0 0 0 0 0 0 0 0 0 0 0 0 0 0 0 0 0 0 1 5 0 2 0 0 0 0 0 0 0 0 0 0 0 0 0 0 0 0
0 0 0 0 0 0 0 0 0 0 0 0 0 0 0 0 0 0 0 0 0 0 0 0 0 16 5 5 5 5 0 0 0 0 0 0 0 0 0 0 0 0 0 0 0
0 0 0 0 0 0 0 2 0 0 0 0 0 0 0 0 0 0 0 0 0 0 2 4 4 5 5 5 3 1 5 0 0 0 0 0 0 0 0 0 0 0 0 0 0
0 0 0 0 0 0 0 0 0 0 0 0 0 0 0 0 0 0 0 0 0 0 0 0 0 0 0 0 0 0 0 0 0 0 0 0 0 0 0 0 0 0 0 0 0
0 0 0 0 0 0 0 0 0 0 0 4 3 0 0 5 5 2 0 0 0 0 1 0 1 0 0 0 0 0 0 0 0 0 0 0 0 0 0 0 0 0 0 0 0
0 0 0 0 0 0 0 0 0 0 0 0 0 5 5 5 4 5 5 5 5 5 5 2 0 0 2 4 5 5 0 0 0 0 0 0 0 0 0 0 0 0 0 0 0
0 0 0 0 0 0 0 0 0 0 0 0 0 5 5 5 5 1 1 5 5 5 5 4 5 5 5 0 5 5 0 0 0 0 0 0 0 0 0 0 0 0 0 0 0
0 0 0 0 0 0 0 0 0 0 0 0 0 1 2 5 70 24 5 4 4 2 0 5 5 5 5 5 5 5 3 3 0 0 0 0 0 0 0 0 0 0 0 0 0
0 0 0 0 0 0 0 0 4 4 0 0 0 0 0 2 3 4 5 5 9 86 55 5 10 8 12 4 1 3 0 0 0 0 0 0 0 0 0 0 0 0 0 0 0
0 0 0 0 0 0 0 0 0 0 0 0 0 0 0 0 0 0 0 1 5 5 6 5 4 5 19 76 2 0 0 0 0 0 0 0 0 0 0 12 2 0 0 0 0
0 0 0 0 0 0 0 0 0 0 0 0 0 0 0 2 5 4 2 2 3 3 5 5 21 4 5 36 100 17 1 0 1 3 0 0 1 0 0 0 2 0 0 0 0
0 0 0 0 0 0 0 0 0 0 0 0 0 0 0 0 5 5 5 10 81 95 52 100 56 5 5 5 85 100 98 16 2 0 0 0 14 0 0 0 5 0 0 0 0
1 0 0 0 0 0 2 5 5 4 0 0 0 4 4 28 35 5 48 88 100 44 22 81 91 47 5 5 55 100 100 100 100 87 7 5 1 0 1 4 2 0 0 4 0
4 5 5 1 1 0 0 0 0 1 5 5 5 5 5 67 100 98 79 51 100 100 100 99 78 25 22 67 78 61 100 100 100 69 100 29 33 13 5 2 1 0 0 0 2
8 17 5 5 5 5 1 0 0 0 2 0 3 23 90 38 22 89 100 100 100 100 98 100 100 100 100 100 100 85 81 86 100 100 100 15 62 56 12 0 0 0 0 0 0
4 5 5 5 5 6 5 5 5 5 5 5 4 5 5 30 58 8 99 100 100 100 100 100 96 100 84 100 100 98 57 5 93 100 100 99 0 89 0 0 0 0 0 0 5
39 9 9 74 30 20 7 5 5 5 5 3 3 0 0 0 0 1 68 84 99 100 100 100 100 100 82 100 99 7 21 100 100 100 99 21 4 0 1 4 5 5 5 5 5

GFSSW_prec_cloud_216.txt.gz
Cloud_Cover
0 0 0 1 0 2 18 11 13 7 0 0 0 0 0 0 7 0 0 0 0 0 0 0 0 0 0 0 0 0 0 0 0 0 0 0 0 0 0 0 0 0 0 0 0
0 0 0 0 0 0 0 1 6 0 0 0 0 0 0 6 0 0 0 0 0 0 0 0 0 0 0 0 0 0 0 0 0 0 0 0 0 0 0 0 0 0 0 0 0
0 0 0 0 0 0 0 0 0 0 0 0 0 0 0 23 0 0 0 0 0 0 0 0 0 0 0 0 0 0 0 0 0 0 0 0 0 0 0 0 0 0 0 0 0
0 0 0 0 0 0 0 0 0 0 0 0 0 0 1 0 0 0 0 0 0 0 0 0 0 0 0 0 0 0 0 0 0 0 0 0 0 0 0 0 0 0 0 0 0
5 2 0 0 0 0 0 0 0 0 0 0 0 0 0 0 0 0 0 0 0 0 0 0 0 0 0 0 0 0 0 0 0 0 0 0 0 0 0 0 0 0 0 0 0
5 5 0 0 0 0 0 0 0 0 0 0 0 26 0 0 0 0 0 0 0 0 0 0 0 0 0 0 0 0 0 0 0 0 0 0 0 0 0 0 0 0 0 0 0
47 11 0 0 0 0 0 0 0 0 0 0 0 0 0 0 0 0 0 0 0 0 0 0 0 0 0 0 0 0 0 0 0 0 0 0 0 0 0 0 0 0 0 0 0
0 0 0 0 0 0 0 0 0 0 0 0 0 0 0 0 0 0 0 0 0 0 0 0 0 0 0 0 0 0 0 0 0 0 0 0 0 0 0 0 0 0 0 0 0
0 0 0 0 0 0 0 0 0 0 0 0 0 0 0 0 0 0 0 0 0 0 0 0 0 0 0 0 0 0 0 0 0 0 0 0 0 0 0 0 0 0 0 0 0
0 0 0 0 0 0 0 0 0 10 0 0 0 0 0 0 0 0 0 0 0 0 0 0 0 0 0 0 0 0 0 0 0 0 0 0 0 0 0 0 0 0 0 0 0
0 0 0 0 0 0 3 0 0 0 0 0 0 0 0 0 0 0 0 0 0 0 0 0 0 0 0 0 0 0 0 0 0 0 0 0 0 0 0 0 0 0 0 0 0
0 0 0 0 0 0 5 0 0 0 0 0 0 0 0 0 0 0 0 0 0 0 0 0 0 0 0 0 0 0 0 0 0 0 0 0 0 0 0 0 0 0 0 0 0
0 0 0 0 0 22 0 0 0 0 0 0 0 0 0 0 0 0 0 0 0 0 0 0 0 0 0 0 0 0 0 0 0 0 0 0 1 0 3 0 0 0 0 0 0
0 0 0 0 8 0 0 0 0 0 0 0 0 0 0 0 0 0 0 0 0 0 0 0 0 0 0 0 0 5 0 1 0 0 0 0 0 0 0 0 0 0 0 0 0
0 0 0 0 0 0 0 0 0 0 0 0 0 0 0 0 0 0 0 0 0 0 0 0 0 0 3 3 0 0 0 0 0 0 0 0 0 0 0 0 0 0 0 0 0
0 0 0 0 1 0 0 0 0 0 0 0 0 0 0 0 0 0 0 0 0 0 0 0 0 0 5 5 1 2 4 0 2 0 0 0 0 0 2 5 0 0 0 0 0
0 0 0 0 0 0 0 0 0 0 0 0 0 0 0 0 0 0 0 0 0 2 1 3 2 0 0 0 5 5 5 4 5 5 2 0 0 0 0 5 6 1 0 0 0
0 0 0 0 0 0 0 0 0 0 0 0 0 0 0 0 0 0 0 0 2 1 0 1 0 23 0 0 4 94 5 5 5 5 32 3 0 5 5 6 14 5 3 0 0
0 0 0 0 0 3 3 5 0 0 0 0 0 0 0 0 0 0 0 0 0 0 0 5 5 96 5 4 4 10 6 39 76 68 36 2 0 5 18 100 100 59 6 1 0
12 0 0 0 0 1 5 1 0 0 0 0 0 0 0 4 1 0 4 2 4 18 4 5 5 18 80 48 5 5 60 100 83 38 83 13 36 20 8 88 100 100 100 12 0
65 4 2 0 0 5 31 6 3 0 0 0 2 4 5 5 4 1 4 3 5 2 2 11 46 8 75 97 99 99 71 95 100 85 100 77 65 100 10 37 100 100 100 78 4
51 5 5 0 1 5 5 100 16 5 1 4 0 5 5 5 5 5 5 36 75 8 5 99 6 5 42 38 66 10 39 100 100 40 100 89 2 85 84 96 85 100 100 86 5
95 37 5 5 15 6 46 97 100 99 20 2 0 0 3 2 4 1 5 60 75 5 10 15 27 68 51 99 100 82 5 25 87 98 89 88 10 100 56 82 81 100 96 32 5
100 100 92 74 5 38 95 76 96 52 11 5 2 0 2 2 5 5 9 5 4 0 1 4 5 96 58 54 100 81 98 100 100 42 0 52 3 79 100 100 100 100 79 76 50
100 21 5 5 5 30 83 88 5 0 0 0 3 5 5 5 6 89 24 3 1 0 0 4 5 12 5 23 83 100 99 75 100 100 100 6 94 29 100 100 100 100 90 83 100
5 5 5 5 4 5 5 5 4 5 5 5 5 5 9 34 31 5 0 0 0 0 5 5 27 31 5 5 19 92 6 89 100 100 100 100 72 3 100 100 99 81 30 5 5
47 5 5 5 2 5 4 4 5 5 30 5 5 30 100 66 5 0 0 0 0 1 1 3 5 17 4 4 10 15 61 32 100 100 100 100 81 70 100 100 98 84 88 62 34